Location: Clarion
(42.7316°N, 93.7330°W)
Time: 22:12:25
(UTC+00:00)

NOSS 3-4 (A) - Pass Details

Date: 22 April 2026
Orbit: 769 x 1442 km, 63.4° (Epoch: 10 January)

Event Time Altitude Azimuth Distance (km) Brightness Sun altitude
Rises 08:55:33 0° 325° (NW) 3,701 6.7 -23.7°
Reaches altitude 10° 08:58:01 10° 330° (NNW) 2,839 6.1 -23.4°
Maximum altitude 09:04:45 61° 50° (NE) 1,309 4.4 -22.5°
Drops below altitude 10° 09:12:39 10° 130° (SE) 3,313 6.3 -21.4°
Sets 09:15:43 0° 134° (SE) 4,359 7.0 -21.0°
